Time,TemperatureF,DewpointF,PressureIn,WindDirection,WindDirectionDegrees,WindSpeedMPH,WindSpeedGustMPH,Humidity,HourlyPrecipIn,Conditions,Clouds,dailyrainin,SolarRadiationWatts/m^2,SoftwareType,DateUTC
2013-02-13 00:01:00,18.9,16.2,29.90,SW,217,0.0,2.0,89,0.00,,,0.00,0.0,meteohub,2013-02-13 06:01:00,
2013-02-13 00:06:00,18.9,16.2,29.90,SW,217,0.0,1.0,89,0.00,,,0.00,0.0,meteohub,2013-02-13 06:06:00,
2013-02-13 00:11:00,18.7,16.0,29.90,SW,217,0.0,1.0,89,0.00,,,0.00,0.0,meteohub,2013-02-13 06:11:00,
2013-02-13 00:16:00,18.7,16.2,29.90,SW,217,0.0,1.0,90,0.00,,,0.00,0.0,meteohub,2013-02-13 06:16:00,
2013-02-13 00:21:00,18.9,16.3,29.90,SW,217,0.0,1.0,90,0.00,,,0.00,0.0,meteohub,2013-02-13 06:21:00,
2013-02-13 00:26:00,18.9,16.3,29.89,SW,217,0.0,1.0,90,0.00,,,0.00,0.0,meteohub,2013-02-13 06:26:00,
2013-02-13 00:31:00,18.7,16.0,29.90,SW,217,0.0,1.0,89,0.00,,,0.00,0.0,meteohub,2013-02-13 06:31:00,
2013-02-13 00:36:00,18.3,15.8,29.90,SW,217,0.0,1.0,90,0.00,,,0.00,0.0,meteohub,2013-02-13 06:36:00,
2013-02-13 00:41:00,18.3,15.8,29.90,SW,217,0.0,0.0,90,0.00,,,0.00,0.0,meteohub,2013-02-13 06:41:00,
2013-02-13 00:46:00,18.3,15.8,29.89,SW,217,0.0,0.0,90,0.00,,,0.00,0.0,meteohub,2013-02-13 06:46:00,
2013-02-13 00:51:00,18.9,16.7,29.89,SW,217,0.0,0.0,91,0.00,,,0.00,0.0,meteohub,2013-02-13 06:51:00,
2013-02-13 00:56:00,19.0,16.5,29.88,SW,217,0.0,0.0,90,0.00,,,0.00,0.0,meteohub,2013-02-13 06:56:00,
2013-02-13 01:01:00,19.2,16.7,29.88,SW,217,0.0,0.0,90,0.00,,,0.00,0.0,meteohub,2013-02-13 07:01:00,
2013-02-13 01:06:00,19.0,16.5,29.88,SW,217,0.0,0.0,90,0.00,,,0.00,0.0,meteohub,2013-02-13 07:06:00,
2013-02-13 01:11:00,18.9,16.3,29.88,SW,217,0.0,0.0,90,0.00,,,0.00,0.0,meteohub,2013-02-13 07:11:00,
2013-02-13 01:16:00,19.0,16.5,29.88,SW,217,0.0,0.0,90,0.00,,,0.00,0.0,meteohub,2013-02-13 07:16:00,
2013-02-13 01:21:00,19.0,16.5,29.88,SW,217,0.0,0.0,90,0.00,,,0.00,0.0,meteohub,2013-02-13 07:21:00,
2013-02-13 01:26:00,18.9,16.2,29.88,SW,217,0.0,0.0,89,0.00,,,0.00,0.0,meteohub,2013-02-13 07:26:00,
2013-02-13 01:31:00,18.9,16.3,29.88,SW,217,0.0,0.0,90,0.00,,,0.00,0.0,meteohub,2013-02-13 07:31:00,
2013-02-13 01:36:00,19.0,16.5,29.88,SW,217,0.0,0.0,90,0.00,,,0.00,0.0,meteohub,2013-02-13 07:36:00,
2013-02-13 01:41:00,19.2,16.7,29.88,SW,217,0.0,0.0,90,0.00,,,0.00,0.0,meteohub,2013-02-13 07:41:00,
2013-02-13 01:46:00,19.4,16.9,29.88,SW,217,0.0,0.0,90,0.00,,,0.00,0.0,meteohub,2013-02-13 07:46:00,
2013-02-13 01:51:00,19.4,16.9,29.88,SW,217,0.0,0.0,90,0.00,,,0.00,0.0,meteohub,2013-02-13 07:51:00,
2013-02-13 01:56:00,19.6,17.1,29.88,SW,217,0.0,0.0,90,0.00,,,0.00,0.0,meteohub,2013-02-13 07:56:00,
2013-02-13 02:01:00,19.9,17.4,29.88,SW,217,0.0,0.0,90,0.00,,,0.00,0.0,meteohub,2013-02-13 08:01:00,
2013-02-13 02:06:00,20.1,17.6,29.87,SW,217,0.0,0.0,90,0.00,,,0.00,0.0,meteohub,2013-02-13 08:06:00,
2013-02-13 02:11:00,19.9,17.4,29.88,SW,217,0.0,0.0,90,0.00,,,0.00,0.0,meteohub,2013-02-13 08:11:00,
2013-02-13 02:16:00,19.8,17.2,29.88,SW,217,0.0,0.0,90,0.00,,,0.00,0.0,meteohub,2013-02-13 08:16:00,
2013-02-13 02:21:00,18.9,16.2,29.88,SW,217,0.0,0.0,89,0.00,,,0.00,0.0,meteohub,2013-02-13 08:21:00,
2013-02-13 02:26:00,18.9,16.7,29.88,SW,217,0.0,0.0,91,0.00,,,0.00,0.0,meteohub,2013-02-13 08:26:00,
2013-02-13 02:31:00,19.6,17.4,29.87,SW,217,0.0,0.0,91,0.00,,,0.00,0.0,meteohub,2013-02-13 08:31:00,
2013-02-13 02:37:00,19.6,17.4,29.88,SW,217,0.0,0.0,91,0.00,,,0.00,0.0,meteohub,2013-02-13 08:37:00,
2013-02-13 02:42:00,19.6,17.4,29.88,SW,217,0.0,0.0,91,0.00,,,0.00,0.0,meteohub,2013-02-13 08:42:00,
2013-02-13 02:47:00,19.4,17.2,29.88,SW,217,0.0,0.0,91,0.00,,,0.00,0.0,meteohub,2013-02-13 08:47:00,
2013-02-13 02:52:00,19.8,17.8,29.87,SW,217,0.0,0.0,92,0.00,,,0.00,0.0,meteohub,2013-02-13 08:52:00,
2013-02-13 02:57:00,19.8,17.8,29.87,SW,217,0.0,0.0,92,0.00,,,0.00,0.0,meteohub,2013-02-13 08:57:00,
2013-02-13 03:02:00,20.3,18.3,29.86,SW,217,0.0,0.0,92,0.00,,,0.00,0.0,meteohub,2013-02-13 09:02:00,
2013-02-13 03:07:00,20.7,18.7,29.86,SW,217,0.0,1.0,92,0.00,,,0.00,0.0,meteohub,2013-02-13 09:07:00,
2013-02-13 03:12:00,21.0,19.0,29.86,SW,217,0.0,1.0,92,0.00,,,0.00,0.0,meteohub,2013-02-13 09:12:00,
2013-02-13 03:17:00,20.8,18.7,29.86,SW,217,0.0,1.0,91,0.00,,,0.00,0.0,meteohub,2013-02-13 09:17:00,
2013-02-13 03:22:00,20.8,18.7,29.86,SW,217,0.0,0.0,91,0.00,,,0.00,0.0,meteohub,2013-02-13 09:22:00,
2013-02-13 03:27:00,20.8,18.7,29.86,SW,217,0.0,0.0,91,0.00,,,0.00,0.0,meteohub,2013-02-13 09:27:00,
2013-02-13 03:32:00,21.0,18.9,29.86,SW,217,0.0,0.0,91,0.00,,,0.00,0.0,meteohub,2013-02-13 09:32:00,
2013-02-13 03:37:00,21.2,19.0,29.86,SW,217,0.0,0.0,91,0.00,,,0.00,0.0,meteohub,2013-02-13 09:37:00,
2013-02-13 03:42:00,21.0,18.9,29.86,SW,217,0.0,0.0,91,0.00,,,0.00,0.0,meteohub,2013-02-13 09:42:00,
2013-02-13 03:47:00,21.4,19.2,29.86,SW,217,0.0,1.0,91,0.00,,,0.00,0.0,meteohub,2013-02-13 09:47:00,
2013-02-13 03:52:00,21.4,19.2,29.86,SW,217,0.0,1.0,91,0.00,,,0.00,0.0,meteohub,2013-02-13 09:52:00,
2013-02-13 03:57:00,21.6,19.4,29.86,SW,217,0.0,2.0,91,0.00,,,0.00,0.0,meteohub,2013-02-13 09:57:00,
2013-02-13 04:02:00,21.6,19.4,29.85,SW,217,0.0,2.0,91,0.00,,,0.00,0.0,meteohub,2013-02-13 10:02:00,
2013-02-13 04:07:00,21.7,19.6,29.85,SW,217,0.0,0.0,91,0.00,,,0.00,0.0,meteohub,2013-02-13 10:07:00,
2013-02-13 04:12:00,22.1,19.9,29.85,SW,217,0.0,0.0,91,0.00,,,0.00,0.0,meteohub,2013-02-13 10:12:00,
2013-02-13 04:17:00,22.3,20.1,29.85,SW,217,0.0,0.0,91,0.00,,,0.00,0.0,meteohub,2013-02-13 10:17:00,
2013-02-13 04:22:00,22.3,20.1,29.85,SW,217,0.0,0.0,91,0.00,,,0.00,0.0,meteohub,2013-02-13 10:22:00,
2013-02-13 04:27:00,22.5,20.3,29.85,SW,217,0.0,0.0,91,0.00,,,0.00,0.0,meteohub,2013-02-13 10:27:00,
2013-02-13 04:32:00,22.5,20.3,29.85,SW,217,0.0,0.0,91,0.00,,,0.00,0.0,meteohub,2013-02-13 10:32:00,
2013-02-13 04:37:00,22.5,20.3,29.85,SW,217,0.0,0.0,91,0.00,,,0.00,0.0,meteohub,2013-02-13 10:37:00,
2013-02-13 04:42:00,22.5,19.9,29.85,SW,217,0.0,0.0,90,0.00,,,0.00,0.0,meteohub,2013-02-13 10:42:00,
2013-02-13 04:47:00,22.5,19.9,29.84,SW,217,0.0,0.0,90,0.00,,,0.00,0.0,meteohub,2013-02-13 10:47:00,
2013-02-13 04:52:00,22.5,20.3,29.84,SW,217,0.0,0.0,91,0.00,,,0.00,0.0,meteohub,2013-02-13 10:52:00,
2013-02-13 04:57:00,22.6,20.5,29.84,SW,217,0.0,0.0,91,0.00,,,0.00,0.0,meteohub,2013-02-13 10:57:00,
2013-02-13 05:02:00,22.6,20.1,29.84,SW,217,0.0,0.0,90,0.00,,,0.00,0.0,meteohub,2013-02-13 11:02:00,
2013-02-13 05:07:00,22.8,20.7,29.84,SW,217,0.0,0.0,91,0.00,,,0.00,0.0,meteohub,2013-02-13 11:07:00,
2013-02-13 05:12:00,22.8,20.7,29.83,SW,217,0.0,0.0,91,0.00,,,0.00,0.0,meteohub,2013-02-13 11:12:00,
2013-02-13 05:17:00,23.0,20.8,29.83,SW,217,0.0,0.0,91,0.00,,,0.00,0.0,meteohub,2013-02-13 11:17:00,
2013-02-13 05:22:00,23.2,21.0,29.83,SW,217,0.0,0.0,91,0.00,,,0.00,0.0,meteohub,2013-02-13 11:22:00,
2013-02-13 05:27:00,23.4,21.2,29.82,SW,217,0.0,0.0,91,0.00,,,0.00,0.0,meteohub,2013-02-13 11:27:00,
2013-02-13 05:32:00,23.5,21.4,29.82,SW,217,0.0,0.0,91,0.00,,,0.00,0.0,meteohub,2013-02-13 11:32:00,
2013-02-13 05:37:00,23.7,21.6,29.82,SW,217,0.0,0.0,91,0.00,,,0.00,0.0,meteohub,2013-02-13 11:37:00,
2013-02-13 05:42:00,23.9,21.7,29.82,SW,217,0.0,0.0,91,0.00,,,0.00,0.0,meteohub,2013-02-13 11:42:00,
2013-02-13 05:47:00,24.1,21.9,29.82,SW,217,0.0,0.0,91,0.00,,,0.00,0.0,meteohub,2013-02-13 11:47:00,
2013-02-13 05:52:00,24.1,21.9,29.81,SW,217,1.0,0.0,91,0.00,,,0.00,0.0,meteohub,2013-02-13 11:52:00,
2013-02-13 05:57:00,24.3,22.1,29.81,SW,217,0.0,1.0,91,0.00,,,0.00,0.0,meteohub,2013-02-13 11:57:00,
2013-02-13 06:02:00,24.3,21.7,29.81,SW,217,0.0,1.0,90,0.00,,,0.00,0.0,meteohub,2013-02-13 12:02:00,
2013-02-13 06:07:00,24.4,21.9,29.80,SW,217,0.0,1.0,90,0.00,,,0.00,0.0,meteohub,2013-02-13 12:07:00,
2013-02-13 06:12:00,24.4,21.9,29.81,SW,217,0.0,1.0,90,0.00,,,0.00,0.0,meteohub,2013-02-13 12:12:00,
2013-02-13 06:17:00,24.4,21.9,29.80,SW,217,0.0,1.0,90,0.00,,,0.00,0.0,meteohub,2013-02-13 12:17:00,
2013-02-13 06:22:00,24.4,21.9,29.80,SW,217,0.0,1.0,90,0.00,,,0.00,0.0,meteohub,2013-02-13 12:22:00,
2013-02-13 06:27:00,24.4,21.9,29.80,SW,217,0.0,1.0,90,0.00,,,0.00,0.0,meteohub,2013-02-13 12:27:00,
2013-02-13 06:32:00,24.4,21.9,29.79,SW,215,0.0,1.0,90,0.00,,,0.00,0.0,meteohub,2013-02-13 12:32:00,
2013-02-13 06:37:00,24.6,22.1,29.79,SW,215,0.0,2.0,90,0.00,,,0.00,0.0,meteohub,2013-02-13 12:37:00,
2013-02-13 06:42:00,24.6,22.1,29.79,SW,215,0.0,2.0,90,0.00,,,0.00,0.0,meteohub,2013-02-13 12:42:00,
2013-02-13 06:47:00,24.6,22.1,29.79,SW,215,0.0,2.0,90,0.00,,,0.00,0.0,meteohub,2013-02-13 12:47:00,
2013-02-13 06:52:00,24.6,22.1,29.79,SW,215,0.0,1.0,90,0.00,,,0.00,0.0,meteohub,2013-02-13 12:52:00,
2013-02-13 06:57:00,24.6,21.9,29.79,SW,215,0.0,0.0,89,0.00,,,0.00,0.0,meteohub,2013-02-13 12:57:00,
2013-02-13 07:02:00,24.6,21.9,29.79,SW,215,0.0,0.0,89,0.00,,,0.00,0.0,meteohub,2013-02-13 13:02:00,
2013-02-13 07:07:00,24.4,21.7,29.79,SW,215,0.0,0.0,89,0.00,,,0.00,0.0,meteohub,2013-02-13 13:07:00,
2013-02-13 07:12:00,24.4,21.7,29.79,SW,215,0.0,0.0,89,0.00,,,0.00,0.0,meteohub,2013-02-13 13:12:00,
2013-02-13 07:17:00,24.3,21.6,29.79,SW,215,0.0,0.0,89,0.00,,,0.00,0.0,meteohub,2013-02-13 13:17:00,
2013-02-13 07:22:00,24.3,21.6,29.79,SW,215,0.0,1.0,89,0.00,,,0.00,0.0,meteohub,2013-02-13 13:22:00,
2013-02-13 07:27:00,24.1,21.4,29.78,SW,215,0.0,1.0,89,0.00,,,0.00,0.0,meteohub,2013-02-13 13:27:00,
2013-02-13 07:32:00,24.1,21.4,29.79,SW,215,0.0,0.0,89,0.00,,,0.00,5.0,meteohub,2013-02-13 13:32:00,
2013-02-13 07:37:00,24.1,21.4,29.79,SW,215,0.0,0.0,89,0.00,,,0.00,5.0,meteohub,2013-02-13 13:37:00,
2013-02-13 07:42:00,23.9,21.2,29.79,SW,215,0.0,0.0,89,0.00,,,0.00,9.0,meteohub,2013-02-13 13:42:00,
2013-02-13 07:47:00,23.9,21.2,29.78,SW,215,0.0,0.0,89,0.00,,,0.00,11.0,meteohub,2013-02-13 13:47:00,
2013-02-13 07:52:00,23.9,21.4,29.78,SW,215,0.0,1.0,90,0.00,,,0.00,12.0,meteohub,2013-02-13 13:52:00,
2013-02-13 07:57:00,23.9,21.4,29.78,SW,215,0.0,1.0,90,0.00,,,0.00,12.0,meteohub,2013-02-13 13:57:00,
2013-02-13 08:02:00,23.9,21.4,29.78,SW,215,0.0,1.0,90,0.00,,,0.00,14.0,meteohub,2013-02-13 14:02:00,
2013-02-13 08:07:00,23.9,21.4,29.78,SW,215,0.0,1.0,90,0.00,,,0.00,16.0,meteohub,2013-02-13 14:07:00,
2013-02-13 08:12:00,23.9,21.4,29.79,SW,215,0.0,1.0,90,0.00,,,0.00,18.0,meteohub,2013-02-13 14:12:00,
2013-02-13 08:17:00,23.9,21.4,29.79,SW,215,0.0,1.0,90,0.00,,,0.00,19.0,meteohub,2013-02-13 14:17:00,
2013-02-13 08:22:00,24.1,21.6,29.78,SW,215,0.0,1.0,90,0.00,,,0.00,21.0,meteohub,2013-02-13 14:22:00,
2013-02-13 08:27:00,24.1,21.6,29.78,SW,215,0.0,1.0,90,0.00,,,0.00,23.0,meteohub,2013-02-13 14:27:00,
2013-02-13 08:32:00,24.1,21.6,29.78,SW,215,0.0,0.0,90,0.00,,,0.00,25.0,meteohub,2013-02-13 14:32:00,
2013-02-13 08:37:00,24.1,21.6,29.78,SW,215,0.0,0.0,90,0.00,,,0.00,26.0,meteohub,2013-02-13 14:37:00,
2013-02-13 08:42:00,24.1,21.4,29.78,SW,215,0.0,0.0,89,0.00,,,0.00,32.0,meteohub,2013-02-13 14:42:00,
2013-02-13 08:47:00,24.3,21.6,29.79,SW,215,0.0,0.0,89,0.00,,,0.00,53.0,meteohub,2013-02-13 14:47:00,
2013-02-13 08:52:00,24.8,22.1,29.78,SW,215,0.0,0.0,89,0.00,,,0.00,60.0,meteohub,2013-02-13 14:52:00,
2013-02-13 08:57:00,25.2,22.1,29.79,SW,227,0.0,0.0,88,0.00,,,0.00,62.0,meteohub,2013-02-13 14:57:00,
2013-02-13 09:02:00,25.5,22.3,29.78,SW,227,0.0,2.0,87,0.00,,,0.00,90.0,meteohub,2013-02-13 15:02:00,
2013-02-13 09:07:00,26.2,22.8,29.78,SW,227,0.0,2.0,87,0.00,,,0.00,97.0,meteohub,2013-02-13 15:07:00,
2013-02-13 09:12:00,27.1,23.2,29.78,West,277,0.0,2.0,85,0.00,,,0.00,123.0,meteohub,2013-02-13 15:12:00,
2013-02-13 09:17:00,27.9,23.7,29.78,West,277,0.0,2.0,84,0.00,,,0.00,137.0,meteohub,2013-02-13 15:17:00,
2013-02-13 09:22:00,28.6,24.4,29.78,West,277,0.0,2.0,84,0.00,,,0.00,139.0,meteohub,2013-02-13 15:22:00,
2013-02-13 09:27:00,29.1,24.3,29.78,West,277,0.0,2.0,82,0.00,,,0.00,167.0,meteohub,2013-02-13 15:27:00,
2013-02-13 09:32:00,29.7,24.6,29.78,West,277,1.0,2.0,81,0.00,,,0.00,186.0,meteohub,2013-02-13 15:32:00,
2013-02-13 09:37:00,30.0,24.3,29.78,WSW,242,0.0,2.0,79,0.00,,,0.00,155.0,meteohub,2013-02-13 15:37:00,
2013-02-13 09:42:00,29.8,24.4,29.78,West,269,0.0,3.0,80,0.00,,,0.00,118.0,meteohub,2013-02-13 15:42:00,
2013-02-13 09:47:00,29.7,24.3,29.77,North,355,0.0,3.0,80,0.00,,,0.00,93.0,meteohub,2013-02-13 15:47:00,
2013-02-13 09:52:00,29.5,24.1,29.77,SSW,202,1.0,3.0,80,0.00,,,0.00,90.0,meteohub,2013-02-13 15:52:00,
2013-02-13 09:57:00,29.5,24.1,29.77,SSW,202,0.0,3.0,80,0.00,,,0.00,88.0,meteohub,2013-02-13 15:57:00,
2013-02-13 10:02:00,29.5,24.1,29.77,SSW,204,0.0,3.0,80,0.00,,,0.00,105.0,meteohub,2013-02-13 16:02:00,
2013-02-13 10:07:00,29.7,24.3,29.77,SSW,213,2.0,3.0,80,0.00,,,0.00,125.0,meteohub,2013-02-13 16:07:00,
2013-02-13 10:12:00,30.2,24.4,29.76,WNW,284,1.0,3.0,79,0.00,,,0.00,127.0,meteohub,2013-02-13 16:12:00,
2013-02-13 10:17:00,30.4,24.6,29.76,West,267,2.0,3.0,79,0.00,,,0.00,148.0,meteohub,2013-02-13 16:17:00,
2013-02-13 10:22:00,30.7,24.6,29.76,West,264,2.0,4.0,78,0.00,,,0.00,176.0,meteohub,2013-02-13 16:22:00,
2013-02-13 10:27:00,31.5,25.2,29.76,WSW,243,1.0,4.0,77,0.00,,,0.00,283.0,meteohub,2013-02-13 16:27:00,
2013-02-13 10:32:00,32.2,25.7,29.76,SW,235,0.0,4.0,77,0.00,,,0.00,294.0,meteohub,2013-02-13 16:32:00,
2013-02-13 10:37:00,32.5,25.9,29.75,WSW,250,1.0,4.0,76,0.00,,,0.00,232.0,meteohub,2013-02-13 16:37:00,
2013-02-13 10:42:00,32.7,25.7,29.76,West,276,1.0,3.0,75,0.00,,,0.00,255.0,meteohub,2013-02-13 16:42:00,
2013-02-13 10:47:00,32.7,25.7,29.75,West,275,0.0,3.0,75,0.00,,,0.00,257.0,meteohub,2013-02-13 16:47:00,
2013-02-13 10:52:00,33.1,26.4,29.75,West,275,2.0,3.0,76,0.00,,,0.00,239.0,meteohub,2013-02-13 16:52:00,
2013-02-13 10:57:00,33.1,25.7,29.75,West,269,0.0,3.0,74,0.00,,,0.00,264.0,meteohub,2013-02-13 16:57:00,
2013-02-13 11:02:00,33.3,25.9,29.75,West,269,0.0,3.0,74,0.00,,,0.00,250.0,meteohub,2013-02-13 17:02:00,
2013-02-13 11:07:00,33.3,25.9,29.75,West,268,0.0,3.0,74,0.00,,,0.00,260.0,meteohub,2013-02-13 17:07:00,
2013-02-13 11:12:00,33.4,26.4,29.75,West,263,1.0,3.0,75,0.00,,,0.00,257.0,meteohub,2013-02-13 17:12:00,
2013-02-13 11:17:00,33.8,26.4,29.75,West,263,1.0,3.0,74,0.00,,,0.00,295.0,meteohub,2013-02-13 17:17:00,
2013-02-13 11:22:00,34.3,27.0,29.75,West,263,0.0,3.0,74,0.00,,,0.00,295.0,meteohub,2013-02-13 17:22:00,
2013-02-13 11:27:00,34.5,27.1,29.75,West,263,0.0,3.0,74,0.00,,,0.00,315.0,meteohub,2013-02-13 17:27:00,
2013-02-13 11:32:00,34.5,26.8,29.75,West,259,1.0,3.0,73,0.00,,,0.00,390.0,meteohub,2013-02-13 17:32:00,
2013-02-13 11:37:00,35.2,27.1,29.75,WSW,257,2.0,3.0,72,0.00,,,0.00,441.0,meteohub,2013-02-13 17:37:00,
2013-02-13 11:42:00,36.0,27.9,29.75,South,190,0.0,3.0,72,0.00,,,0.00,418.0,meteohub,2013-02-13 17:42:00,
2013-02-13 11:47:00,36.0,27.1,29.75,SW,215,5.0,5.0,70,0.00,,,0.00,417.0,meteohub,2013-02-13 17:47:00,
2013-02-13 11:52:00,36.7,27.5,29.75,West,267,4.0,5.0,69,0.00,,,0.00,552.0,meteohub,2013-02-13 17:52:00,
2013-02-13 11:57:00,36.9,28.0,29.75,West,270,2.0,5.0,70,0.00,,,0.00,392.0,meteohub,2013-02-13 17:57:00,
2013-02-13 12:02:00,36.9,27.7,29.74,West,269,4.0,5.0,69,0.00,,,0.00,366.0,meteohub,2013-02-13 18:02:00,
2013-02-13 12:07:00,37.4,27.9,29.74,WNW,282,1.0,5.0,68,0.00,,,0.00,461.0,meteohub,2013-02-13 18:07:00,
2013-02-13 12:12:00,37.2,27.3,29.74,WNW,284,1.0,5.0,67,0.00,,,0.00,371.0,meteohub,2013-02-13 18:12:00,
2013-02-13 12:17:00,37.2,27.3,29.73,West,279,1.0,5.0,67,0.00,,,0.00,438.0,meteohub,2013-02-13 18:17:00,
2013-02-13 12:22:00,37.6,28.4,29.73,West,276,2.0,5.0,69,0.00,,,0.00,459.0,meteohub,2013-02-13 18:22:00,
2013-02-13 12:27:00,37.6,28.0,29.73,West,269,4.0,4.0,68,0.00,,,0.00,478.0,meteohub,2013-02-13 18:27:00,
2013-02-13 12:32:00,37.6,27.7,29.72,WNW,288,1.0,4.0,67,0.00,,,0.00,431.0,meteohub,2013-02-13 18:32:00,
2013-02-13 12:37:00,37.6,28.0,29.72,West,278,3.0,5.0,68,0.00,,,0.00,406.0,meteohub,2013-02-13 18:37:00,
2013-02-13 12:42:00,37.6,28.0,29.72,West,270,2.0,5.0,68,0.00,,,0.00,364.0,meteohub,2013-02-13 18:42:00,
2013-02-13 12:47:00,37.4,27.9,29.72,West,277,3.0,5.0,68,0.00,,,0.00,367.0,meteohub,2013-02-13 18:47:00,
2013-02-13 12:52:00,37.2,28.0,29.72,West,273,3.0,5.0,69,0.00,,,0.00,322.0,meteohub,2013-02-13 18:52:00,
2013-02-13 12:57:00,37.0,27.9,29.72,West,269,3.0,5.0,69,0.00,,,0.00,320.0,meteohub,2013-02-13 18:57:00,
2013-02-13 13:02:00,37.2,28.4,29.71,West,263,2.0,5.0,70,0.00,,,0.00,343.0,meteohub,2013-02-13 19:02:00,
2013-02-13 13:07:00,37.2,28.0,29.71,West,276,2.0,5.0,69,0.00,,,0.00,336.0,meteohub,2013-02-13 19:07:00,
2013-02-13 13:12:00,37.0,28.2,29.71,NW,315,2.0,4.0,70,0.00,,,0.00,339.0,meteohub,2013-02-13 19:12:00,
2013-02-13 13:17:00,37.0,28.6,29.71,West,281,3.0,4.0,71,0.00,,,0.00,309.0,meteohub,2013-02-13 19:17:00,
2013-02-13 13:22:00,37.0,28.2,29.70,West,262,3.0,4.0,70,0.00,,,0.00,299.0,meteohub,2013-02-13 19:22:00,
2013-02-13 13:27:00,37.0,28.6,29.70,West,271,3.0,4.0,71,0.00,,,0.00,287.0,meteohub,2013-02-13 19:27:00,
2013-02-13 13:32:00,36.9,28.0,29.70,West,272,2.0,4.0,70,0.00,,,0.00,267.0,meteohub,2013-02-13 19:32:00,
2013-02-13 13:37:00,37.0,28.6,29.69,West,272,1.0,4.0,71,0.00,,,0.00,258.0,meteohub,2013-02-13 19:37:00,
2013-02-13 13:42:00,37.2,28.8,29.69,West,265,2.0,4.0,71,0.00,,,0.00,243.0,meteohub,2013-02-13 19:42:00,
2013-02-13 13:47:00,37.4,28.9,29.69,West,265,2.0,4.0,71,0.00,,,0.00,299.0,meteohub,2013-02-13 19:47:00,
2013-02-13 13:52:00,37.8,28.9,29.69,West,275,2.0,4.0,70,0.00,,,0.00,265.0,meteohub,2013-02-13 19:52:00,
2013-02-13 13:57:00,37.8,28.6,29.68,WNW,297,0.0,4.0,69,0.00,,,0.00,229.0,meteohub,2013-02-13 19:57:00,
2013-02-13 14:02:00,37.6,28.8,29.68,WNW,297,3.0,4.0,70,0.00,,,0.00,218.0,meteohub,2013-02-13 20:02:00,
2013-02-13 14:07:00,37.6,29.1,29.68,WNW,297,0.0,4.0,71,0.00,,,0.00,227.0,meteohub,2013-02-13 20:07:00,
2013-02-13 14:12:00,37.6,29.1,29.68,WNW,297,1.0,3.0,71,0.00,,,0.00,216.0,meteohub,2013-02-13 20:12:00,
2013-02-13 14:17:00,37.4,29.1,29.68,WNW,297,0.0,3.0,72,0.00,,,0.00,207.0,meteohub,2013-02-13 20:17:00,
2013-02-13 14:22:00,37.2,29.1,29.67,WNW,296,0.0,4.0,72,0.00,,,0.00,183.0,meteohub,2013-02-13 20:22:00,
2013-02-13 14:27:00,37.2,29.1,29.67,WNW,297,0.0,4.0,72,0.00,,,0.00,165.0,meteohub,2013-02-13 20:27:00,
2013-02-13 14:33:00,37.2,29.3,29.67,WNW,297,1.0,4.0,73,0.00,,,0.00,149.0,meteohub,2013-02-13 20:33:00,
2013-02-13 14:38:00,37.0,29.1,29.67,SSW,209,0.0,2.0,73,0.00,,,0.00,139.0,meteohub,2013-02-13 20:38:00,
2013-02-13 14:43:00,36.3,28.6,29.66,SW,221,0.0,3.0,73,0.00,,,0.00,134.0,meteohub,2013-02-13 20:43:00,
2013-02-13 14:48:00,36.0,28.8,29.66,SW,219,0.0,3.0,75,0.00,,,0.00,132.0,meteohub,2013-02-13 20:48:00,
2013-02-13 14:53:00,35.8,29.3,29.66,SW,219,0.0,3.0,77,0.00,,,0.00,148.0,meteohub,2013-02-13 20:53:00,
2013-02-13 14:58:00,36.1,29.3,29.65,SW,219,0.0,2.0,76,0.00,,,0.00,134.0,meteohub,2013-02-13 20:58:00,
2013-02-13 15:03:00,36.0,29.8,29.65,SW,219,0.0,1.0,78,0.00,,,0.00,134.0,meteohub,2013-02-13 21:03:00,
2013-02-13 15:08:00,36.0,30.4,29.65,SW,219,0.0,1.0,80,0.00,,,0.00,146.0,meteohub,2013-02-13 21:08:00,
2013-02-13 15:13:00,36.1,30.2,29.65,West,275,0.0,0.0,79,0.00,,,0.00,167.0,meteohub,2013-02-13 21:13:00,
2013-02-13 15:18:00,36.1,30.9,29.65,SW,214,0.0,1.0,81,0.00,,,0.00,141.0,meteohub,2013-02-13 21:18:00,
2013-02-13 15:23:00,36.0,30.4,29.65,South,186,0.0,3.0,80,0.00,,,0.00,98.0,meteohub,2013-02-13 21:23:00,
2013-02-13 15:28:00,35.6,30.4,29.66,South,186,0.0,3.0,81,0.00,,,0.00,77.0,meteohub,2013-02-13 21:28:00,
2013-02-13 15:33:00,35.2,30.0,29.66,South,190,0.0,3.0,81,0.00,,,0.00,79.0,meteohub,2013-02-13 21:33:00,
2013-02-13 15:38:00,35.1,30.4,29.65,South,190,0.0,3.0,83,0.00,,,0.00,72.0,meteohub,2013-02-13 21:38:00,
2013-02-13 15:43:00,34.7,30.4,29.66,WSW,249,0.0,3.0,84,0.00,,,0.00,63.0,meteohub,2013-02-13 21:43:00,
2013-02-13 15:48:00,34.3,30.4,29.66,WSW,249,1.0,3.0,85,0.00,,,0.00,69.0,meteohub,2013-02-13 21:48:00,
2013-02-13 15:53:00,34.2,30.4,29.66,WSW,248,0.0,3.0,86,0.00,,,0.00,84.0,meteohub,2013-02-13 21:53:00,
2013-02-13 15:58:00,34.2,30.7,29.66,WSW,248,1.0,3.0,87,0.00,,,0.00,83.0,meteohub,2013-02-13 21:58:00,
2013-02-13 16:03:00,34.0,30.7,29.66,WSW,248,0.0,3.0,88,0.00,,,0.00,65.0,meteohub,2013-02-13 22:03:00,
2013-02-13 16:08:00,33.8,30.9,29.65,WSW,248,0.0,3.0,89,0.00,,,0.00,65.0,meteohub,2013-02-13 22:08:00,
2013-02-13 16:13:00,33.6,30.7,29.66,WSW,248,1.0,3.0,89,0.00,,,0.00,69.0,meteohub,2013-02-13 22:13:00,
2013-02-13 16:18:00,33.6,31.3,29.66,WSW,257,1.0,3.0,91,0.00,,,0.00,49.0,meteohub,2013-02-13 22:18:00,
2013-02-13 16:23:00,33.4,31.1,29.65,WSW,257,0.0,3.0,91,0.00,,,0.00,44.0,meteohub,2013-02-13 22:23:00,
2013-02-13 16:28:00,33.4,31.3,29.65,WSW,257,0.0,2.0,92,0.00,,,0.00,53.0,meteohub,2013-02-13 22:28:00,
2013-02-13 16:33:00,33.4,31.3,29.65,WSW,254,0.0,2.0,92,0.00,,,0.00,49.0,meteohub,2013-02-13 22:33:00,
2013-02-13 16:38:00,33.4,31.3,29.65,West,271,0.0,3.0,92,0.00,,,0.00,53.0,meteohub,2013-02-13 22:38:00,
2013-02-13 16:43:00,33.4,31.6,29.65,West,271,0.0,3.0,93,0.00,,,0.00,53.0,meteohub,2013-02-13 22:43:00,
2013-02-13 16:48:00,33.4,31.6,29.65,West,271,0.0,2.0,93,0.00,,,0.00,49.0,meteohub,2013-02-13 22:48:00,
2013-02-13 16:53:00,33.4,31.6,29.65,West,271,0.0,1.0,93,0.00,,,0.00,53.0,meteohub,2013-02-13 22:53:00,
2013-02-13 16:58:00,33.4,31.6,29.65,SW,219,0.0,2.0,93,0.00,,,0.00,37.0,meteohub,2013-02-13 22:58:00,
2013-02-13 17:03:00,33.4,31.6,29.65,SSW,202,0.0,2.0,93,0.00,,,0.00,32.0,meteohub,2013-02-13 23:03:00,
2013-02-13 17:08:00,33.3,31.5,29.64,SSW,202,0.0,3.0,93,0.00,,,0.00,30.0,meteohub,2013-02-13 23:08:00,
2013-02-13 17:13:00,33.3,31.5,29.64,SW,233,0.0,3.0,93,0.00,,,0.00,19.0,meteohub,2013-02-13 23:13:00,
2013-02-13 17:18:00,33.1,31.3,29.64,SW,231,0.0,3.0,93,0.01,,,0.01,18.0,meteohub,2013-02-13 23:18:00,
2013-02-13 17:23:00,33.1,31.5,29.64,SW,231,0.0,3.0,94,0.01,,,0.01,14.0,meteohub,2013-02-13 23:23:00,
2013-02-13 17:28:00,33.1,31.5,29.64,WSW,252,0.0,2.0,94,0.01,,,0.01,14.0,meteohub,2013-02-13 23:28:00,
2013-02-13 17:33:00,33.1,31.5,29.64,South,187,0.0,2.0,94,0.01,,,0.01,11.0,meteohub,2013-02-13 23:33:00,
2013-02-13 17:38:00,33.1,31.5,29.64,South,187,0.0,1.0,94,0.01,,,0.01,11.0,meteohub,2013-02-13 23:38:00,
2013-02-13 17:43:00,33.1,31.5,29.64,South,187,0.0,1.0,94,0.01,,,0.01,16.0,meteohub,2013-02-13 23:43:00,
2013-02-13 17:48:00,33.1,31.5,29.64,South,187,0.0,1.0,94,0.01,,,0.01,18.0,meteohub,2013-02-13 23:48:00,
2013-02-13 17:53:00,32.9,31.3,29.64,South,187,0.0,1.0,94,0.01,,,0.01,0.0,meteohub,2013-02-13 23:53:00,
2013-02-13 17:58:00,32.9,31.3,29.64,South,187,0.0,1.0,94,0.01,,,0.01,0.0,meteohub,2013-02-13 23:58:00,
2013-02-13 18:03:00,32.9,31.3,29.64,South,187,1.0,1.0,94,0.01,,,0.01,0.0,meteohub,2013-02-14 00:03:00,
2013-02-13 18:08:00,32.7,31.1,29.64,South,188,0.0,1.0,94,0.01,,,0.01,0.0,meteohub,2013-02-14 00:08:00,
2013-02-13 18:13:00,32.7,31.1,29.64,South,188,0.0,2.0,94,0.00,,,0.01,0.0,meteohub,2013-02-14 00:13:00,
2013-02-13 18:18:00,32.7,31.1,29.64,South,188,0.0,2.0,94,0.00,,,0.01,0.0,meteohub,2013-02-14 00:18:00,
2013-02-13 18:23:00,32.7,31.1,29.64,South,188,0.0,2.0,94,0.00,,,0.01,0.0,meteohub,2013-02-14 00:23:00,
2013-02-13 18:28:00,32.7,31.5,29.64,West,261,0.0,0.0,95,0.00,,,0.01,0.0,meteohub,2013-02-14 00:28:00,
2013-02-13 18:33:00,32.7,31.5,29.64,West,261,0.0,3.0,95,0.00,,,0.01,0.0,meteohub,2013-02-14 00:33:00,
2013-02-13 18:38:00,32.7,31.5,29.64,West,261,0.0,3.0,95,0.00,,,0.01,0.0,meteohub,2013-02-14 00:38:00,
2013-02-13 18:43:00,32.7,31.5,29.63,West,261,0.0,3.0,95,0.00,,,0.01,0.0,meteohub,2013-02-14 00:43:00,
2013-02-13 18:48:00,32.7,31.5,29.64,West,261,0.0,2.0,95,0.00,,,0.01,0.0,meteohub,2013-02-14 00:48:00,
2013-02-13 18:53:00,32.7,31.5,29.64,West,261,0.0,1.0,95,0.00,,,0.01,0.0,meteohub,2013-02-14 00:53:00,
2013-02-13 18:59:00,32.7,31.5,29.63,West,261,0.0,0.0,95,0.00,,,0.01,0.0,meteohub,2013-02-14 00:59:00,
2013-02-13 19:04:00,32.7,31.5,29.64,West,261,0.0,1.0,95,0.00,,,0.01,0.0,meteohub,2013-02-14 01:04:00,
2013-02-13 19:09:00,32.7,31.5,29.64,West,261,1.0,2.0,95,0.00,,,0.01,0.0,meteohub,2013-02-14 01:09:00,
2013-02-13 19:14:00,32.9,31.6,29.64,West,261,2.0,2.0,95,0.00,,,0.01,0.0,meteohub,2013-02-14 01:14:00,
2013-02-13 19:19:00,33.1,31.8,29.64,West,261,1.0,2.0,95,0.00,,,0.01,0.0,meteohub,2013-02-14 01:19:00,
2013-02-13 19:24:00,33.1,31.8,29.64,West,261,2.0,3.0,95,0.00,,,0.01,0.0,meteohub,2013-02-14 01:24:00,
2013-02-13 19:29:00,33.3,32.0,29.64,West,261,3.0,3.0,95,0.00,,,0.01,0.0,meteohub,2013-02-14 01:29:00,
2013-02-13 19:34:00,33.4,32.2,29.64,West,267,2.0,4.0,95,0.00,,,0.01,0.0,meteohub,2013-02-14 01:34:00,
2013-02-13 19:39:00,33.4,32.2,29.64,WSW,248,2.0,4.0,95,0.00,,,0.01,0.0,meteohub,2013-02-14 01:39:00,
2013-02-13 19:44:00,33.6,32.4,29.64,West,270,3.0,4.0,95,0.00,,,0.01,0.0,meteohub,2013-02-14 01:44:00,
2013-02-13 19:49:00,34.0,32.4,29.64,West,264,4.0,5.0,94,0.00,,,0.01,0.0,meteohub,2013-02-14 01:49:00,
2013-02-13 19:54:00,34.2,32.5,29.64,West,267,4.0,6.0,94,0.00,,,0.01,0.0,meteohub,2013-02-14 01:54:00,
2013-02-13 19:59:00,34.3,32.5,29.64,West,260,4.0,6.0,93,0.00,,,0.01,0.0,meteohub,2013-02-14 01:59:00,
2013-02-13 20:04:00,34.5,32.7,29.64,WNW,286,7.0,7.0,93,0.00,,,0.01,0.0,meteohub,2013-02-14 02:04:00,
2013-02-13 20:09:00,34.5,32.4,29.64,WSW,252,4.0,7.0,92,0.00,,,0.01,0.0,meteohub,2013-02-14 02:09:00,
2013-02-13 20:14:00,34.7,32.5,29.65,NW,321,5.0,8.0,92,0.00,,,0.01,0.0,meteohub,2013-02-14 02:14:00,
2013-02-13 20:19:00,34.7,32.4,29.65,West,276,6.0,11.0,91,0.00,,,0.01,0.0,meteohub,2013-02-14 02:19:00,
2013-02-13 20:24:00,34.5,32.2,29.65,WSW,252,5.0,11.0,91,0.00,,,0.01,0.0,meteohub,2013-02-14 02:24:00,
2013-02-13 20:29:00,34.5,31.8,29.65,West,269,6.0,11.0,90,0.00,,,0.01,0.0,meteohub,2013-02-14 02:29:00,
2013-02-13 20:34:00,34.3,31.6,29.65,West,274,6.0,11.0,90,0.00,,,0.01,0.0,meteohub,2013-02-14 02:34:00,
2013-02-13 20:39:00,34.0,31.3,29.65,WNW,286,8.0,11.0,90,0.00,,,0.01,0.0,meteohub,2013-02-14 02:39:00,
2013-02-13 20:44:00,33.8,31.1,29.66,West,259,10.0,12.0,90,0.00,,,0.01,0.0,meteohub,2013-02-14 02:44:00,
2013-02-13 20:49:00,33.6,30.9,29.66,West,273,5.0,12.0,90,0.00,,,0.01,0.0,meteohub,2013-02-14 02:49:00,
2013-02-13 20:54:00,33.4,30.7,29.66,West,272,6.0,14.0,90,0.00,,,0.01,0.0,meteohub,2013-02-14 02:54:00,
2013-02-13 20:59:00,33.3,30.6,29.66,West,265,7.0,14.0,90,0.00,,,0.01,0.0,meteohub,2013-02-14 02:59:00,
2013-02-13 21:04:00,32.9,30.6,29.67,West,261,3.0,14.0,91,0.00,,,0.01,0.0,meteohub,2013-02-14 03:04:00,
2013-02-13 21:09:00,32.7,30.4,29.67,WNW,289,4.0,11.0,91,0.00,,,0.01,0.0,meteohub,2013-02-14 03:09:00,
2013-02-13 21:14:00,32.5,30.6,29.67,WNW,293,3.0,10.0,92,0.00,,,0.01,0.0,meteohub,2013-02-14 03:14:00,
2013-02-13 21:20:00,32.4,30.4,29.68,WNW,292,2.0,10.0,92,0.00,,,0.01,0.0,meteohub,2013-02-14 03:20:00,
2013-02-13 21:25:00,32.4,30.4,29.68,SW,223,4.0,9.0,92,0.00,,,0.01,0.0,meteohub,2013-02-14 03:25:00,
2013-02-13 21:30:00,32.2,30.2,29.68,West,281,5.0,9.0,92,0.00,,,0.01,0.0,meteohub,2013-02-14 03:30:00,
2013-02-13 21:35:00,32.2,30.2,29.68,WNW,283,7.0,8.0,92,0.00,,,0.01,0.0,meteohub,2013-02-14 03:35:00,
2013-02-13 21:40:00,32.0,30.0,29.69,North,5,3.0,8.0,92,0.00,,,0.01,0.0,meteohub,2013-02-14 03:40:00,
2013-02-13 21:45:00,31.6,29.7,29.69,NW,317,3.0,12.0,92,0.00,,,0.01,0.0,meteohub,2013-02-14 03:45:00,
2013-02-13 21:50:00,31.5,29.5,29.69,West,273,4.0,12.0,92,0.00,,,0.01,0.0,meteohub,2013-02-14 03:50:00,
2013-02-13 21:56:00,31.1,29.1,29.69,West,272,4.0,9.0,92,0.00,,,0.01,0.0,meteohub,2013-02-14 03:56:00,
2013-02-13 22:01:00,30.7,28.9,29.69,WNW,292,4.0,9.0,93,0.00,,,0.01,0.0,meteohub,2013-02-14 04:01:00,
2013-02-13 22:06:00,30.7,28.9,29.70,West,277,7.0,9.0,93,0.00,,,0.01,0.0,meteohub,2013-02-14 04:06:00,
2013-02-13 22:11:00,30.6,28.8,29.70,WNW,287,4.0,8.0,93,0.00,,,0.01,0.0,meteohub,2013-02-14 04:11:00,
2013-02-13 22:16:00,30.6,28.8,29.70,WNW,282,5.0,8.0,93,0.00,,,0.01,0.0,meteohub,2013-02-14 04:16:00,
2013-02-13 22:21:00,30.4,28.6,29.70,West,265,7.0,8.0,93,0.00,,,0.01,0.0,meteohub,2013-02-14 04:21:00,
2013-02-13 22:26:00,30.4,28.9,29.71,West,263,4.0,8.0,94,0.00,,,0.01,0.0,meteohub,2013-02-14 04:26:00,
2013-02-13 22:31:00,30.2,28.8,29.71,West,269,6.0,8.0,94,0.00,,,0.01,0.0,meteohub,2013-02-14 04:31:00,
2013-02-13 22:36:00,30.0,28.6,29.71,West,267,5.0,11.0,94,0.00,,,0.01,0.0,meteohub,2013-02-14 04:36:00,
2013-02-13 22:41:00,30.0,28.6,29.71,West,262,5.0,11.0,94,0.00,,,0.01,0.0,meteohub,2013-02-14 04:41:00,
2013-02-13 22:46:00,30.0,28.6,29.72,West,271,4.0,11.0,94,0.00,,,0.01,0.0,meteohub,2013-02-14 04:46:00,
2013-02-13 22:51:00,30.0,28.6,29.72,WNW,303,3.0,8.0,94,0.00,,,0.01,0.0,meteohub,2013-02-14 04:51:00,
2013-02-13 22:56:00,30.0,28.6,29.72,West,269,4.0,8.0,94,0.00,,,0.01,0.0,meteohub,2013-02-14 04:56:00,
2013-02-13 23:00:00,30.0,28.6,29.73,West,275,3.0,8.0,94,0.00,,,0.01,0.0,meteohub,2013-02-14 05:00:00,
2013-02-13 23:05:00,30.0,28.8,29.73,West,274,6.0,9.0,95,0.00,,,0.01,0.0,meteohub,2013-02-14 05:05:00,
2013-02-13 23:10:00,30.0,28.6,29.73,West,275,3.0,9.0,94,0.00,,,0.01,0.0,meteohub,2013-02-14 05:10:00,
2013-02-13 23:15:00,30.0,28.6,29.73,West,272,3.0,8.0,94,0.00,,,0.01,0.0,meteohub,2013-02-14 05:15:00,
2013-02-13 23:20:00,30.0,28.6,29.73,NW,306,2.0,10.0,94,0.00,,,0.01,0.0,meteohub,2013-02-14 05:20:00,
2013-02-13 23:25:00,29.8,28.4,29.74,West,281,3.0,10.0,94,0.00,,,0.01,0.0,meteohub,2013-02-14 05:25:00,
2013-02-13 23:30:00,29.8,28.4,29.74,West,264,4.0,10.0,94,0.00,,,0.01,0.0,meteohub,2013-02-14 05:30:00,
2013-02-13 23:35:00,29.7,28.2,29.74,WNW,282,4.0,9.0,94,0.00,,,0.01,0.0,meteohub,2013-02-14 05:35:00,
2013-02-13 23:40:00,29.7,28.2,29.74,West,277,4.0,9.0,94,0.00,,,0.01,0.0,meteohub,2013-02-14 05:40:00,
2013-02-13 23:45:00,29.5,28.0,29.75,West,279,2.0,9.0,94,0.00,,,0.01,0.0,meteohub,2013-02-14 05:45:00,
2013-02-13 23:50:00,29.5,27.7,29.75,West,278,4.0,7.0,93,0.00,,,0.01,0.0,meteohub,2013-02-14 05:50:00,
2013-02-13 23:55:00,29.3,27.5,29.76,West,272,6.0,8.0,93,0.00,,,0.01,0.0,meteohub,2013-02-14 05:55:00,